Tracking 29892 objects as of 21-Nov-2024
HD Live streaming from Space Station
objects crossing your sky now

SJ-5

Track SJ-5 now!
10-day predictions
SJ-5 is classified as:


NORAD ID: 25731
Int'l Code: 1999-025B
Perigee: 844.8 km
Apogee: 869.3 km
Inclination: 98.8 °
Period: 101.9 minutes
Semi major axis: 7228 km
RCS: 1.539 m2 (large)
Launch date: May 10, 1999
Source: People's Republic of China (PRC)
Launch site: Taiyaun Space Center, China (TSC)
Your satellite tracking list
Your tracking list is empty




NASA's NSSDC Master Catalog

Two Line Element Set (TLE):
1 25731U 99025B   24325.91618038  .00000134  00000-0  95349-4 0  9997
2 25731  98.8072   9.3135 0016953 181.3018 178.8113 14.12780931314374
Source of the keplerian elements: AFSPC